This is the latest recevied weather packets stored in our database for station/object KD8JAM. If no packets are shown the sender has not sent any weather packets the latest 10 day(s).
| Time | Temp. | Humidity | Pressure | Rain* | Wind** | Luminosity | Snow |
|---|---|---|---|---|---|---|---|
| 1777479032 | 6.11° C | 74% | 1017.1 hPa | 0 mm | - | 425 W/m² | - |
| 1777478729 | 6.11° C | 74% | 1017.1 hPa | 0 mm | - | 438 W/m² | - |
| 1777478425 | 5.56° C | 74% | 1017.3 hPa | 0 mm | - | 439 W/m² | - |
| 1777478122 | 5.56° C | 75% | 1016.9 hPa | 0 mm | - | 381 W/m² | - |
| 1777477819 | 5.56° C | 75% | 1017.2 hPa | 0 mm | - | 371 W/m² | - |
| 1777477514 | 5.56° C | 75% | 1017.2 hPa | 0 mm | - | 346 W/m² | - |
| 1777477211 | 5.56° C | 74% | 1017.1 hPa | 0 mm | - | 396 W/m² | - |
| 1777476907 | 6.11° C | 74% | 1017.1 hPa | 0 mm | - | 762 W/m² | - |
| 1777476605 | 5.56° C | 76% | 1017.4 hPa | 0 mm | - | 863 W/m² | - |
| 1777476301 | 5° C | 78% | 1017.4 hPa | 0 mm | - | 417 W/m² | - |
| 1777475997 | 4.44° C | 78% | 1017.5 hPa | 0 mm | - | 365 W/m² | - |
| 1777475693 | 5° C | 78% | 1017.5 hPa | 0 mm | - | 403 W/m² | - |
| 1777475389 | 5° C | 79% | 1017.5 hPa | 0 mm | - | 397 W/m² | - |
| 1777475084 | 4.44° C | 80% | 1017.6 hPa | 0 mm | - | 386 W/m² | - |
| 1777474782 | 4.44° C | 80% | 1017.7 hPa | 0 mm | - | 363 W/m² | - |
| 1777474478 | 4.44° C | 81% | 1017.6 hPa | 0 mm | - | 335 W/m² | - |
| 1777474174 | 3.89° C | 82% | 1017.7 hPa | 0 mm | - | 347 W/m² | - |
| 1777473872 | 3.89° C | 85% | 1017.9 hPa | 0 mm | - | 310 W/m² | - |
| 1777473569 | 3.89° C | 85% | 1017.7 hPa | 0 mm | - | 302 W/m² | - |
| 1777473265 | 3.89° C | 86% | 1018 hPa | 0 mm | - | 263 W/m² | - |
| 1777472961 | 3.89° C | 85% | 1017.7 hPa | 0 mm | - | 269 W/m² | - |
| 1777472658 | 3.89° C | 84% | 1017.8 hPa | 0 mm | - | 283 W/m² | - |
| 1777472354 | 3.33° C | 84% | 1017.6 hPa | 0 mm | - | 284 W/m² | - |
| 1777472052 | 3.33° C | 86% | 1017.8 hPa | 0 mm | - | 271 W/m² | - |
| 1777471747 | 3.33° C | 87% | 1017.8 hPa | 0 mm | - | 245 W/m² | - |
* Rain latest hour (hover to see other rain measurements)
** Current wind speed in m/s (hover to see current wind gust speed)